| time (UTC) | temp C | wind direction | speed KPH | gust KPH | rain 1hr cm | rain 24hr cm | rain mn cm | humidity % | barometer mb |
| 20260504081940 | 15 | 326 | 0.0 | 0.0 | 0.00 | 0.00 | 0.00 | 86 | 1016.9 |
| 20260504081405 | 15 | 326 | 0.0 | 0.0 | 0.00 | 0.00 | 0.00 | 86 | 1016.9 |
| 20260504080902 | 15 | 326 | 0.0 | 0.0 | 0.00 | 0.00 | 0.00 | 85 | 1016.9 |
| 20260504080359 | 15 | 326 | 0.0 | 0.0 | 0.00 | 0.00 | 0.00 | 85 | 1017.3 |
| 20260504070113 | 16 | 326 | 0.0 | 0.0 | 0.00 | 0.00 | 0.00 | 85 | 1017.9 |
| 20260504050658 | 16 | 326 | 0.0 | 0.0 | 0.00 | 0.00 | 0.00 | 82 | 1018.6 |
| 20260504050155 | 16 | 326 | 0.0 | 0.0 | 0.00 | 0.00 | 0.00 | 82 | 1019.0 |
| 20260504045652 | 16 | 326 | 0.0 | 0.0 | 0.00 | 0.00 | 0.00 | 82 | 1019.0 |
| 20260504045149 | 16 | 298 | 0.0 | 0.0 | 0.00 | 0.00 | 0.00 | 81 | 1019.0 |
| 20260504044646 | 16 | 300 | 0.0 | 0.0 | 0.00 | 0.00 | 0.00 | 81 | 1019.0 |
| 20260504044009 | 16 | 300 | 0.0 | 0.0 | 0.00 | 0.00 | 0.00 | 80 | 1019.0 |
| 20260504043505 | 16 | 300 | 0.0 | 0.0 | 0.00 | 0.00 | 0.00 | 80 | 1019.0 |
| 20260504043003 | 16 | 300 | 0.0 | 0.0 | 0.00 | 0.00 | 0.00 | 80 | 1019.0 |
| 20260504042410 | 16 | 300 | 0.0 | 0.0 | 0.00 | 0.00 | 0.00 | 79 | 1019.0 |
| 20260504041907 | 16 | 300 | 0.0 | 0.0 | 0.00 | 0.00 | 0.00 | 79 | 1019.0 |
| 20260504041404 | 17 | 300 | 0.0 | 0.0 | 0.00 | 0.00 | 0.00 | 79 | 1019.0 |
| 20260504040901 | 17 | 300 | 0.0 | 0.0 | 0.00 | 0.00 | 0.00 | 79 | 1019.0 |
| 20260504040256 | 17 | 300 | 0.0 | 0.0 | 0.00 | 0.00 | 0.00 | 79 | 1019.0 |
| 20260504035753 | 17 | 300 | 0.0 | 0.0 | 0.00 | 0.00 | 0.00 | 78 | 1019.0 |
| 20260504035250 | 17 | 300 | 0.0 | 0.0 | 0.00 | 0.00 | 0.00 | 78 | 1019.0 |
| 20260504034747 | 17 | 300 | 0.0 | 0.0 | 0.00 | 0.00 | 0.00 | 78 | 1019.0 |
| 20260504034245 | 17 | 300 | 0.0 | 0.0 | 0.00 | 0.00 | 0.00 | 78 | 1019.0 |
| 20260504033741 | 17 | 300 | 0.0 | 0.0 | 0.00 | 0.00 | 0.00 | 78 | 1019.0 |
| 20260504033239 | 17 | 300 | 0.0 | 0.0 | 0.00 | 0.00 | 0.00 | 79 | 1019.0 |
| 20260504032736 | 17 | 300 | 0.0 | 0.0 | 0.00 | 0.00 | 0.00 | 79 | 1019.0 |
| 20260504032215 | 17 | 300 | 0.0 | 0.0 | 0.00 | 0.00 | 0.00 | 79 | 1019.0 |
| 20260504031712 | 17 | 300 | 0.0 | 0.0 | 0.00 | 0.00 | 0.00 | 78 | 1019.0 |
| 20260504031209 | 17 | 300 | 0.0 | 0.0 | 0.00 | 0.00 | 0.00 | 78 | 1019.0 |
| 20260504030706 | 17 | 300 | 0.0 | 0.0 | 0.00 | 0.00 | 0.00 | 78 | 1018.6 |
| 20260504030203 | 17 | 300 | 0.0 | 0.0 | 0.00 | 0.00 | 0.00 | 78 | 1019.0 |
| 20260504025700 | 17 | 300 | 0.0 | 0.0 | 0.00 | 0.00 | 0.00 | 77 | 1019.0 |
| 20260504025157 | 18 | 300 | 0.0 | 0.0 | 0.00 | 0.00 | 0.00 | 77 | 1019.0 |
| 20260504024654 | 18 | 300 | 0.0 | 0.0 | 0.00 | 0.00 | 0.00 | 77 | 1019.0 |
| 20260504024151 | 18 | 300 | 0.0 | 0.0 | 0.00 | 0.00 | 0.00 | 77 | 1019.0 |
| 20260504023648 | 18 | 300 | 0.0 | 0.0 | 0.00 | 0.00 | 0.00 | 76 | 1019.0 |
| 20260504023145 | 18 | 300 | 0.0 | 0.0 | 0.00 | 0.00 | 0.00 | 76 | 1019.0 |
| 20260504022641 | 18 | 300 | 0.0 | 0.0 | 0.00 | 0.00 | 0.00 | 76 | 1019.0 |
| 20260504022137 | 18 | 300 | 0.0 | 0.0 | 0.00 | 0.00 | 0.00 | 75 | 1019.0 |
| 20260504021634 | 18 | 300 | 0.0 | 0.0 | 0.00 | 0.00 | 0.00 | 75 | 1019.0 |
| 20260504021131 | 18 | 300 | 0.0 | 0.0 | 0.00 | 0.00 | 0.00 | 74 | 1019.0 |
| 20260504020629 | 18 | 300 | 0.0 | 0.0 | 0.00 | 0.00 | 0.00 | 73 | 1019.0 |
| 20260504020125 | 19 | 300 | 0.0 | 0.0 | 0.00 | 0.00 | 0.00 | 73 | 1019.0 |
| 20260504015623 | 19 | 300 | 0.0 | 0.0 | 0.00 | 0.00 | 0.00 | 73 | 1019.0 |
| 20260504015120 | 19 | 300 | 0.0 | 0.0 | 0.00 | 0.00 | 0.00 | 74 | 1019.0 |
| 20260504014616 | 19 | 300 | 0.0 | 0.0 | 0.00 | 0.00 | 0.00 | 73 | 1018.6 |
| 20260504014113 | 20 | 300 | 0.0 | 1.6 | 0.00 | 0.00 | 0.00 | 73 | 1019.0 |
| 20260504013610 | 20 | 300 | 0.0 | 1.6 | 0.00 | 0.00 | 0.00 | 72 | 1019.0 |
| 20260504013048 | 20 | 300 | 0.0 | 1.6 | 0.00 | 0.00 | 0.00 | 74 | 1019.0 |
| 20260504012545 | 20 | 300 | 1.6 | 1.6 | 0.00 | 0.00 | 0.00 | 72 | 1018.6 |
| 20260504012042 | 20 | 300 | 1.6 | 1.6 | 0.00 | 0.00 | 0.00 | 72 | 1018.6 |
| 20260504011539 | 20 | 300 | 0.0 | 0.0 | 0.00 | 0.00 | 0.00 | 72 | 1018.6 |
| 20260504011036 | 20 | 300 | 0.0 | 0.0 | 0.00 | 0.00 | 0.00 | 71 | 1018.6 |
| 20260504010458 | 20 | 300 | 0.0 | 1.6 | 0.00 | 0.00 | 0.00 | 71 | 1018.6 |
| 20260504005935 | 21 | 300 | 0.0 | 1.6 | 0.00 | 0.00 | 0.00 | 70 | 1018.6 |
| 20260504005432 | 21 | 300 | 0.0 | 1.6 | 0.00 | 0.00 | 0.00 | 70 | 1018.6 |
| 20260504004929 | 21 | 300 | 0.0 | 1.6 | 0.00 | 0.00 | 0.00 | 68 | 1018.6 |
| 20260504004426 | 21 | 296 | 0.0 | 0.0 | 0.00 | 0.00 | 0.00 | 68 | 1018.6 |
| 20260504003904 | 21 | 296 | 0.0 | 1.6 | 0.00 | 0.00 | 0.00 | 68 | 1018.6 |
| 20260504003401 | 21 | 296 | 0.0 | 1.6 | 0.00 | 0.00 | 0.00 | 67 | 1018.6 |
| 20260504002859 | 21 | 296 | 0.0 | 1.6 | 0.00 | 0.00 | 0.00 | 67 | 1018.6 |
| 20260504002354 | 22 | 327 | 1.6 | 1.6 | 0.00 | 0.00 | 0.00 | 66 | 1018.6 |
| 20260504001851 | 22 | 327 | 0.0 | 1.6 | 0.00 | 0.00 | 0.00 | 65 | 1018.6 |
| 20260504001317 | 22 | 327 | 1.6 | 1.6 | 0.00 | 0.00 | 0.00 | 62 | 1018.6 |
| 20260504000743 | 22 | 327 | 1.6 | 1.6 | 0.00 | 0.00 | 0.00 | 62 | 1018.6 |
| 20260504000138 | 22 | 327 | 1.6 | 1.6 | 0.00 | 0.00 | 0.00 | 62 | 1018.6 |
| 20260503235540 | 22 | 327 | 1.6 | 1.6 | 0.00 | 0.00 | 0.00 | 62 | 1018.6 |
| 20260503235018 | 22 | 326 | 0.0 | 3.2 | 0.00 | 0.00 | 0.00 | 61 | 1018.6 |
| 20260503234500 | 23 | 326 | 1.6 | 3.2 | 0.00 | 0.00 | 0.00 | 60 | 1019.0 |
| 20260503233957 | 23 | 326 | 0.0 | 3.2 | 0.00 | 0.00 | 0.00 | 61 | 1019.0 |
| 20260503233435 | 23 | 309 | 1.6 | 3.2 | 0.00 | 0.00 | 0.00 | 61 | 1019.0 |
| 20260503232932 | 23 | 20 | 1.6 | 3.2 | 0.00 | 0.00 | 0.00 | 59 | 1019.0 |
| 20260503232429 | 23 | 76 | 1.6 | 4.8 | 0.00 | 0.00 | 0.00 | 61 | 1019.0 |
| 20260503231926 | 23 | 76 | 1.6 | 4.8 | 0.00 | 0.00 | 0.00 | 60 | 1019.0 |
| 20260503231423 | 23 | 76 | 1.6 | 4.8 | 0.00 | 0.00 | 0.00 | 59 | 1019.0 |
| 20260503230920 | 23 | 77 | 1.6 | 4.8 | 0.00 | 0.00 | 0.00 | 60 | 1019.0 |
| 20260503230345 | 24 | 30 | 1.6 | 3.2 | 0.00 | 0.00 | 0.00 | 58 | 1019.0 |
| 20260503225823 | 24 | 55 | 1.6 | 3.2 | 0.00 | 0.00 | 0.00 | 61 | 1019.3 |
| 20260503225320 | 24 | 57 | 1.6 | 3.2 | 0.00 | 0.00 | 0.00 | 55 | 1019.0 |
| 20260503224817 | 24 | 36 | 1.6 | 4.8 | 0.00 | 0.00 | 0.00 | 61 | 1019.0 |
| 20260503224313 | 24 | 360 | 0.0 | 4.8 | 0.00 | 0.00 | 0.00 | 58 | 1019.3 |
| 20260503223811 | 25 | 9 | 1.6 | 4.8 | 0.00 | 0.00 | 0.00 | 58 | 1019.3 |
| 20260503223308 | 25 | 5 | 1.6 | 4.8 | 0.00 | 0.00 | 0.00 | 58 | 1019.3 |
| 20260503222805 | 25 | 333 | 0.0 | 3.2 | 0.00 | 0.00 | 0.00 | 58 | 1019.6 |
| 20260503222304 | 25 | 334 | 1.6 | 3.2 | 0.00 | 0.00 | 0.00 | 57 | 1019.3 |
| 20260503221759 | 25 | 327 | 1.6 | 3.2 | 0.00 | 0.00 | 0.00 | 57 | 1019.3 |
| 20260503221256 | 25 | 327 | 1.6 | 3.2 | 0.00 | 0.00 | 0.00 | 55 | 1019.3 |
| 20260503220753 | 25 | 345 | 1.6 | 3.2 | 0.00 | 0.00 | 0.00 | 56 | 1019.3 |
| 20260503220250 | 25 | 12 | 1.6 | 3.2 | 0.00 | 0.00 | 0.00 | 55 | 1019.3 |
| 20260503215747 | 25 | 26 | 1.6 | 3.2 | 0.00 | 0.00 | 0.00 | 53 | 1019.6 |
| 20260503215244 | 26 | 22 | 0.0 | 4.8 | 0.00 | 0.00 | 0.00 | 53 | 1019.6 |
| 20260503214710 | 26 | 320 | 1.6 | 4.8 | 0.00 | 0.00 | 0.00 | 56 | 1019.6 |
| 20260503214206 | 26 | 290 | 1.6 | 4.8 | 0.00 | 0.00 | 0.00 | 52 | 1019.6 |
| 20260503213703 | 26 | 286 | 1.6 | 4.8 | 0.00 | 0.00 | 0.00 | 53 | 1019.6 |
| 20260503213159 | 26 | 289 | 1.6 | 4.8 | 0.00 | 0.00 | 0.00 | 54 | 1020.0 |
| 20260503212624 | 26 | 309 | 1.6 | 6.4 | 0.00 | 0.00 | 0.00 | 53 | 1020.0 |
| 20260503212121 | 26 | 315 | 1.6 | 6.4 | 0.00 | 0.00 | 0.00 | 55 | 1020.0 |
| 20260503211559 | 26 | 315 | 1.6 | 8.0 | 0.00 | 0.00 | 0.00 | 54 | 1020.0 |
| 20260503211056 | 26 | 313 | 1.6 | 8.0 | 0.00 | 0.00 | 0.00 | 52 | 1020.0 |
| 20260503210553 | 26 | 351 | 3.2 | 8.0 | 0.00 | 0.00 | 0.00 | 52 | 1020.3 |
| 20260503210050 | 26 | 50 | 3.2 | 6.4 | 0.00 | 0.00 | 0.00 | 49 | 1020.3 |
| 20260503205516 | 26 | 315 | 1.6 | 11.3 | 0.00 | 0.00 | 0.00 | 52 | 1020.3 |
| 20260503205013 | 26 | 150 | 1.6 | 11.3 | 0.00 | 0.00 | 0.00 | 50 | 1020.3 |
| 20260503204510 | 26 | 52 | 3.2 | 11.3 | 0.00 | 0.00 | 0.00 | 53 | 1020.3 |
| 20260503204008 | 26 | 15 | 3.2 | 9.7 | 0.00 | 0.00 | 0.00 | 49 | 1020.3 |
| 20260503203505 | 26 | 46 | 3.2 | 9.7 | 0.00 | 0.00 | 0.00 | 52 | 1020.7 |
| 20260503203002 | 26 | 292 | 1.6 | 8.0 | 0.00 | 0.00 | 0.00 | 48 | 1020.7 |
| 20260503202427 | 26 | 303 | 3.2 | 9.7 | 0.00 | 0.00 | 0.00 | 53 | 1020.7 |
| 20260503201925 | 26 | 52 | 1.6 | 9.7 | 0.00 | 0.00 | 0.00 | 49 | 1021.0 |
| 20260503201422 | 26 | 54 | 4.8 | 9.7 | 0.00 | 0.00 | 0.00 | 45 | 1021.0 |
| 20260503200918 | 26 | 73 | 3.2 | 11.3 | 0.00 | 0.00 | 0.00 | 48 | 1021.0 |
| 20260503200415 | 26 | 0 | 1.6 | 11.3 | 0.00 | 0.00 | 0.00 | 49 | 1021.0 |
| 20260503195912 | 26 | 108 | 1.6 | 11.3 | 0.00 | 0.00 | 0.00 | 46 | 1021.3 |
| 20260503195409 | 26 | 62 | 3.2 | 8.0 | 0.00 | 0.00 | 0.00 | 49 | 1021.3 |
| 20260503194905 | 26 | 48 | 3.2 | 4.8 | 0.00 | 0.00 | 0.00 | 46 | 1021.3 |
| 20260503194402 | 26 | 22 | 1.6 | 8.0 | 0.00 | 0.00 | 0.00 | 46 | 1021.3 |
| 20260503193828 | 26 | 331 | 1.6 | 8.0 | 0.00 | 0.00 | 0.00 | 49 | 1021.3 |
| 20260503193223 | 26 | 70 | 1.6 | 8.0 | 0.00 | 0.00 | 0.00 | 48 | 1021.7 |
| 20260503192720 | 26 | 332 | 4.8 | 8.0 | 0.00 | 0.00 | 0.00 | 46 | 1021.7 |
| 20260503192217 | 27 | 65 | 1.6 | 4.8 | 0.00 | 0.00 | 0.00 | 50 | 1021.7 |
| 20260503191714 | 27 | 37 | 1.6 | 4.8 | 0.00 | 0.00 | 0.00 | 50 | 1021.7 |
| 20260503191211 | 27 | 311 | 3.2 | 4.8 | 0.00 | 0.00 | 0.00 | 47 | 1021.7 |
| 20260503190708 | 27 | 237 | 1.6 | 9.7 | 0.00 | 0.00 | 0.00 | 50 | 1022.0 |
| 20260503190205 | 27 | 3 | 3.2 | 12.9 | 0.00 | 0.00 | 0.00 | 53 | 1022.0 |
| 20260503185701 | 27 | 28 | 1.6 | 12.9 | 0.00 | 0.00 | 0.00 | 50 | 1022.0 |
| 20260503185158 | 26 | 40 | 3.2 | 12.9 | 0.00 | 0.00 | 0.00 | 45 | 1022.0 |
| 20260503184655 | 26 | 34 | 4.8 | 12.9 | 0.00 | 0.00 | 0.00 | 43 | 1022.0 |
| 20260503184151 | 27 | 52 | 3.2 | 12.9 | 0.00 | 0.00 | 0.00 | 45 | 1022.4 |
| 20260503183647 | 26 | 48 | 4.8 | 9.7 | 0.00 | 0.00 | 0.00 | 48 | 1022.4 |
| 20260503183144 | 26 | 187 | 3.2 | 11.3 | 0.00 | 0.00 | 0.00 | 48 | 1022.4 |
| 20260503182610 | 26 | 31 | 1.6 | 11.3 | 0.00 | 0.00 | 0.00 | 45 | 1022.4 |
| 20260503182048 | 26 | 55 | 3.2 | 11.3 | 0.00 | 0.00 | 0.00 | 42 | 1022.4 |
| 20260503181545 | 26 | 65 | 3.2 | 11.3 | 0.00 | 0.00 | 0.00 | 40 | 1022.7 |
| 20260503181041 | 26 | 27 | 3.2 | 11.3 | 0.00 | 0.00 | 0.00 | 44 | 1022.7 |
| 20260503180538 | 26 | 17 | 3.2 | 12.9 | 0.00 | 0.00 | 0.00 | 43 | 1022.7 |
| 20260503180013 | 26 | 290 | 1.6 | 12.9 | 0.00 | 0.00 | 0.00 | 44 | 1022.7 |
| 20260503175510 | 26 | 52 | 4.8 | 12.9 | 0.00 | 0.00 | 0.00 | 40 | 1022.7 |
| 20260503174905 | 26 | 47 | 4.8 | 12.9 | 0.00 | 0.00 | 0.00 | 43 | 1023.0 |
| 20260503174402 | 26 | 30 | 4.8 | 12.9 | 0.00 | 0.00 | 0.00 | 41 | 1023.0 |
| 20260503173828 | 26 | 56 | 3.2 | 17.7 | 0.00 | 0.00 | 0.00 | 45 | 1023.0 |
| 20260503173325 | 26 | 19 | 4.8 | 17.7 | 0.00 | 0.03 | 0.00 | 44 | 1023.4 |
| 20260503172822 | 26 | 357 | 3.2 | 17.7 | 0.00 | 0.03 | 0.00 | 46 | 1023.4 |
| 20260503172319 | 26 | 30 | 4.8 | 17.7 | 0.00 | 0.03 | 0.00 | 46 | 1023.4 |
| 20260503171745 | 26 | 32 | 1.6 | 9.7 | 0.00 | 0.03 | 0.00 | 50 | 1023.4 |
| 20260503171241 | 26 | 36 | 3.2 | 12.9 | 0.00 | 0.03 | 0.00 | 42 | 1023.4 |
| 20260503170706 | 26 | 3 | 3.2 | 12.9 | 0.00 | 0.03 | 0.00 | 46 | 1023.4 |
| 20260503170132 | 26 | 121 | 1.6 | 12.9 | 0.00 | 0.03 | 0.00 | 43 | 1023.4 |
| 20260503150749 | 23 | 33 | 3.2 | 11.3 | 0.00 | 0.03 | 0.00 | 65 | 1023.0 |
| 20260503150227 | 22 | 33 | 3.2 | 11.3 | 0.00 | 0.03 | 0.00 | 56 | 1023.0 |
| 20260503130854 | 16 | 294 | 0.0 | 0.0 | 0.00 | 0.03 | 0.00 | 95 | 1022.4 |
| 20260503130351 | 16 | 294 | 0.0 | 0.0 | 0.00 | 0.03 | 0.00 | 95 | 1022.4 |
| 20260503110339 | 13 | 294 | 0.0 | 0.0 | 0.00 | 0.03 | 0.00 | 92 | 1021.7 |
| 20260503090336 | 14 | 294 | 0.0 | 0.0 | 0.00 | 0.03 | 0.00 | 91 | 1021.3 |